| time (UTC) | temp C | wind direction | speed KPH | gust KPH | rain 1hr cm | rain 24hr cm | rain mn cm | humidity % | barometer mb |
| 20260506004423 | 19 | 100 | 16.1 | 0.0 | 0.00 | 0.00 | 0.00 | 89 | 1014.0 |
| 20260506003422 | 19 | 100 | 16.1 | 0.0 | 0.00 | 0.00 | 0.00 | 88 | 1014.0 |
| 20260506002421 | 19 | 100 | 16.1 | 0.0 | 0.00 | 0.00 | 0.00 | 89 | 1013.0 |
| 20260506001420 | 19 | 100 | 16.1 | 0.0 | 0.00 | 0.00 | 0.00 | 88 | 1013.0 |
| 20260506000420 | 20 | 110 | 14.5 | 0.0 | 0.00 | 0.00 | 0.00 | 87 | 1013.0 |
| 20260505235419 | 20 | 110 | 14.5 | 0.0 | 0.00 | 0.00 | 0.00 | 87 | 1013.0 |
| 20260505234418 | 19 | 110 | 14.5 | 0.0 | 0.00 | 0.00 | 0.00 | 87 | 1013.0 |
| 20260505233417 | 20 | 110 | 14.5 | 0.0 | 0.00 | 0.00 | 0.00 | 87 | 1013.0 |
| 20260505232416 | 20 | 110 | 14.5 | 0.0 | 0.00 | 0.00 | 0.00 | 87 | 1013.0 |
| 20260505231415 | 20 | 110 | 14.5 | 0.0 | 0.00 | 0.00 | 0.00 | 87 | 1013.0 |
| 20260505230414 | 20 | 87 | 9.7 | 14.5 | 0.00 | 0.00 | 0.00 | 88 | 1013.0 |
| 20260505225413 | 20 | 87 | 9.7 | 14.5 | 0.00 | 0.00 | 0.00 | 86 | 1013.0 |
| 20260505224412 | 20 | 87 | 9.7 | 14.5 | 0.00 | 0.00 | 0.00 | 85 | 1013.0 |
| 20260505223411 | 20 | 87 | 9.7 | 14.5 | 0.00 | 0.00 | 0.00 | 85 | 1013.0 |
| 20260505222410 | 20 | 80 | 8.0 | 11.3 | 0.00 | 0.00 | 0.00 | 85 | 1013.0 |
| 20260505221409 | 20 | 80 | 8.0 | 11.3 | 0.00 | 0.00 | 0.00 | 85 | 1013.0 |
| 20260505220408 | 20 | 130 | 12.9 | 0.0 | 0.00 | 0.00 | 0.00 | 85 | 1013.0 |
| 20260505214405 | 20 | 130 | 12.9 | 0.0 | 0.00 | 0.00 | 0.00 | 85 | 1013.0 |
| 20260505213403 | 20 | 130 | 12.9 | 0.0 | 0.00 | 0.00 | 0.00 | 85 | 1013.0 |
| 20260505212402 | 20 | 73 | 6.4 | 8.0 | 0.00 | 0.00 | 0.00 | 85 | 1013.0 |
| 20260505211401 | 21 | 73 | 6.4 | 8.0 | 0.00 | 0.00 | 0.00 | 84 | 1013.0 |
| 20260505210400 | 21 | 110 | 12.9 | 0.0 | 0.00 | 0.00 | 0.00 | 82 | 1013.0 |
| 20260505205359 | 21 | 110 | 12.9 | 0.0 | 0.00 | 0.00 | 0.00 | 81 | 1013.0 |
| 20260505204357 | 21 | 110 | 12.9 | 0.0 | 0.00 | 0.00 | 0.00 | 81 | 1013.0 |
| 20260505203355 | 21 | 110 | 12.9 | 0.0 | 0.00 | 0.00 | 0.00 | 81 | 1013.0 |
| 20260505202354 | 21 | 110 | 12.9 | 0.0 | 0.00 | 0.00 | 0.00 | 80 | 1012.0 |
| 20260505201346 | 21 | 110 | 12.9 | 0.0 | 0.00 | 0.00 | 0.00 | 80 | 1012.0 |
| 20260505200345 | 21 | 120 | 8.0 | 0.0 | 0.00 | 0.00 | 0.00 | 80 | 1012.0 |
| 20260505195344 | 21 | 120 | 8.0 | 0.0 | 0.00 | 0.00 | 0.00 | 80 | 1013.0 |
| 20260505194343 | 21 | 120 | 8.0 | 0.0 | 0.00 | 0.00 | 0.00 | 80 | 1013.0 |
| 20260505193342 | 21 | 120 | 8.0 | 0.0 | 0.00 | 0.00 | 0.00 | 80 | 1013.0 |
| 20260505192342 | 21 | 120 | 8.0 | 0.0 | 0.00 | 0.00 | 0.00 | 80 | 1012.0 |
| 20260505191341 | 21 | 120 | 8.0 | 0.0 | 0.00 | 0.00 | 0.00 | 80 | 1012.0 |
| 20260505190340 | 21 | 0 | 3.2 | 0.0 | 0.00 | 0.00 | 0.00 | 80 | 1013.0 |
| 20260505185339 | 21 | 0 | 3.2 | 0.0 | 0.00 | 0.00 | 0.00 | 79 | 1013.0 |
| 20260505184338 | 21 | 0 | 3.2 | 0.0 | 0.00 | 0.00 | 0.00 | 79 | 1013.0 |
| 20260505183337 | 21 | 0 | 3.2 | 0.0 | 0.00 | 0.00 | 0.00 | 79 | 1012.0 |
| 20260505182336 | 21 | 0 | 3.2 | 0.0 | 0.00 | 0.00 | 0.00 | 79 | 1012.0 |
| 20260505181335 | 21 | 0 | 3.2 | 0.0 | 0.00 | 0.00 | 0.00 | 79 | 1012.0 |
| 20260505180335 | 22 | 26 | 8.0 | 6.4 | 0.00 | 0.00 | 0.00 | 77 | 1012.0 |
| 20260505175334 | 22 | 26 | 8.0 | 6.4 | 0.00 | 0.00 | 0.00 | 77 | 1012.0 |
| 20260505174333 | 22 | 48 | 11.3 | 9.7 | 0.00 | 0.00 | 0.00 | 77 | 1012.0 |
| 20260505173332 | 22 | 48 | 11.3 | 9.7 | 0.00 | 0.00 | 0.00 | 77 | 1012.0 |
| 20260505172331 | 22 | 45 | 9.7 | 8.0 | 0.00 | 0.00 | 0.00 | 76 | 1013.0 |
| 20260505171330 | 22 | 45 | 9.7 | 8.0 | 0.00 | 0.00 | 0.00 | 76 | 1013.0 |
| 20260505170329 | 22 | 45 | 9.7 | 8.0 | 0.00 | 0.00 | 0.00 | 76 | 1013.0 |
| 20260505165328 | 22 | 45 | 9.7 | 8.0 | 0.00 | 0.00 | 0.00 | 76 | 1013.0 |
| 20260505164328 | 22 | 45 | 9.7 | 8.0 | 0.00 | 0.00 | 0.00 | 76 | 1013.0 |
| 20260505163326 | 22 | 45 | 9.7 | 8.0 | 0.00 | 0.00 | 0.00 | 76 | 1013.0 |
| 20260505162326 | 21 | 31 | 8.0 | 6.4 | 0.00 | 0.00 | 0.00 | 76 | 1014.0 |
| 20260505161325 | 21 | 31 | 8.0 | 6.4 | 0.00 | 0.00 | 0.00 | 77 | 1014.0 |
| 20260505160324 | 21 | 120 | 8.0 | 0.0 | 0.00 | 0.00 | 0.00 | 79 | 1014.0 |
| 20260505153322 | 20 | 120 | 8.0 | 0.0 | 0.00 | 0.00 | 0.00 | 80 | 1014.0 |
| 20260505152320 | 20 | 120 | 8.0 | 0.0 | 0.00 | 0.00 | 0.00 | 81 | 1014.0 |
| 20260505151320 | 19 | 120 | 8.0 | 0.0 | 0.00 | 0.00 | 0.00 | 81 | 1014.0 |
| 20260505150319 | 18 | 340 | 4.8 | 0.0 | 0.00 | 0.00 | 0.00 | 81 | 1014.0 |
| 20260505140313 | 18 | 0 | 3.2 | 0.0 | 0.00 | 0.00 | 0.00 | 82 | 1014.0 |
| 20260505130306 | 17 | 40 | 4.8 | 0.0 | 0.00 | 0.00 | 0.00 | 86 | 1014.0 |
| 20260505124304 | 17 | 40 | 4.8 | 0.0 | 0.00 | 0.00 | 0.00 | 85 | 1014.0 |
| 20260505123303 | 17 | 40 | 4.8 | 0.0 | 0.00 | 0.00 | 0.00 | 86 | 1014.0 |
| 20260505122305 | 16 | 40 | 4.8 | 0.0 | 0.00 | 0.00 | 0.00 | 86 | 1014.0 |
| 20260505121301 | 16 | 40 | 4.8 | 0.0 | 0.00 | 0.00 | 0.00 | 85 | 1014.0 |
| 20260505120300 | 16 | 0 | 0.0 | 0.0 | 0.00 | 0.00 | 0.00 | 84 | 1014.0 |
| 20260505115259 | 16 | 0 | 0.0 | 0.0 | 0.00 | 0.00 | 0.00 | 85 | 1014.0 |
| 20260505114258 | 16 | 293 | 3.2 | 4.8 | 0.00 | 0.00 | 0.00 | 88 | 1014.0 |
| 20260505113257 | 16 | 293 | 3.2 | 4.8 | 0.00 | 0.00 | 0.00 | 88 | 1014.0 |
| 20260505112256 | 15 | 302 | 4.8 | 8.0 | 0.00 | 0.00 | 0.00 | 88 | 1013.0 |
| 20260505111256 | 15 | 302 | 4.8 | 8.0 | 0.00 | 0.00 | 0.00 | 88 | 1013.0 |
| 20260505110255 | 16 | 0 | 0.0 | 0.0 | 0.00 | 0.00 | 0.00 | 86 | 1013.0 |
| 20260505101250 | 16 | 0 | 0.0 | 0.0 | 0.00 | 0.00 | 0.00 | 84 | 1013.0 |
| 20260505100249 | 16 | 0 | 1.6 | 0.0 | 0.00 | 0.00 | 0.00 | 83 | 1013.0 |
| 20260505095248 | 16 | 0 | 1.6 | 0.0 | 0.00 | 0.00 | 0.00 | 83 | 1013.0 |
| 20260505094247 | 16 | 0 | 1.6 | 0.0 | 0.00 | 0.00 | 0.00 | 83 | 1013.0 |
| 20260505093246 | 16 | 0 | 1.6 | 0.0 | 0.00 | 0.00 | 0.00 | 83 | 1013.0 |
| 20260505092245 | 15 | 315 | 9.7 | 12.9 | 0.00 | 0.00 | 0.00 | 85 | 1012.0 |
| 20260505091244 | 15 | 315 | 9.7 | 12.9 | 0.00 | 0.00 | 0.00 | 84 | 1012.0 |
| 20260505090243 | 15 | 0 | 3.2 | 0.0 | 0.00 | 0.00 | 0.00 | 84 | 1012.0 |
| 20260505085242 | 15 | 0 | 3.2 | 0.0 | 0.00 | 0.00 | 0.00 | 84 | 1012.0 |
| 20260505084241 | 15 | 0 | 3.2 | 0.0 | 0.00 | 0.00 | 0.00 | 84 | 1012.0 |
| 20260505083240 | 15 | 0 | 3.2 | 0.0 | 0.00 | 0.00 | 0.00 | 84 | 1012.0 |
| 20260505082240 | 15 | 0 | 3.2 | 0.0 | 0.00 | 0.00 | 0.00 | 84 | 1012.0 |
| 20260505081239 | 15 | 0 | 3.2 | 0.0 | 0.00 | 0.00 | 0.00 | 84 | 1012.0 |
| 20260505080238 | 15 | 330 | 4.8 | 0.0 | 0.00 | 0.00 | 0.00 | 83 | 1012.0 |
| 20260505075237 | 15 | 330 | 4.8 | 0.0 | 0.00 | 0.00 | 0.00 | 83 | 1012.0 |
| 20260505074236 | 14 | 327 | 11.3 | 17.7 | 0.00 | 0.00 | 0.00 | 84 | 1012.0 |
| 20260505073235 | 14 | 321 | 11.3 | 19.3 | 0.00 | 0.00 | 0.00 | 84 | 1012.0 |
| 20260505072234 | 14 | 321 | 11.3 | 19.3 | 0.00 | 0.00 | 0.00 | 84 | 1012.0 |
| 20260505071233 | 14 | 321 | 11.3 | 19.3 | 0.00 | 0.00 | 0.00 | 84 | 1012.0 |
| 20260505070233 | 14 | 0 | 3.2 | 0.0 | 0.00 | 0.00 | 0.00 | 83 | 1012.0 |
| 20260505065231 | 14 | 0 | 3.2 | 0.0 | 0.00 | 0.00 | 0.00 | 83 | 1012.0 |
| 20260505064230 | 14 | 0 | 3.2 | 0.0 | 0.00 | 0.00 | 0.00 | 83 | 1012.0 |
| 20260505063230 | 14 | 0 | 3.2 | 0.0 | 0.00 | 0.00 | 0.00 | 83 | 1012.0 |
| 20260505062229 | 14 | 0 | 3.2 | 0.0 | 0.00 | 0.00 | 0.00 | 82 | 1012.0 |
| 20260505061227 | 14 | 0 | 3.2 | 0.0 | 0.00 | 0.00 | 0.00 | 82 | 1012.0 |
| 20260505060226 | 14 | 0 | 3.2 | 0.0 | 0.00 | 0.00 | 0.00 | 82 | 1013.0 |
| 20260505055226 | 14 | 0 | 3.2 | 0.0 | 0.00 | 0.00 | 0.00 | 82 | 1013.0 |
| 20260505054224 | 13 | 312 | 11.3 | 19.3 | 0.00 | 0.00 | 0.00 | 83 | 1013.0 |
| 20260505053223 | 13 | 319 | 11.3 | 19.3 | 0.00 | 0.00 | 0.00 | 83 | 1012.0 |
| 20260505052223 | 13 | 319 | 11.3 | 19.3 | 0.00 | 0.00 | 0.00 | 85 | 1012.0 |
| 20260505051222 | 13 | 319 | 11.3 | 19.3 | 0.00 | 0.00 | 0.00 | 83 | 1012.0 |
| 20260505050221 | 13 | 0 | 1.6 | 0.0 | 0.00 | 0.00 | 0.00 | 84 | 1012.0 |
| 20260505041216 | 13 | 0 | 1.6 | 0.0 | 0.00 | 0.00 | 0.00 | 84 | 1012.0 |
| 20260505040215 | 13 | 321 | 12.9 | 20.9 | 0.00 | 0.00 | 0.00 | 81 | 1012.0 |
| 20260505035214 | 14 | 321 | 12.9 | 20.9 | 0.00 | 0.00 | 0.00 | 81 | 1012.0 |
| 20260505034213 | 14 | 321 | 12.9 | 20.9 | 0.00 | 0.00 | 0.00 | 81 | 1012.0 |
| 20260505033212 | 13 | 321 | 12.9 | 20.9 | 0.00 | 0.00 | 0.00 | 81 | 1012.0 |
| 20260505032211 | 14 | 328 | 11.3 | 16.1 | 0.00 | 0.00 | 0.00 | 80 | 1012.0 |
| 20260505031210 | 14 | 328 | 11.3 | 16.1 | 0.00 | 0.00 | 0.00 | 79 | 1012.0 |
| 20260505030209 | 14 | 328 | 11.3 | 16.1 | 0.00 | 0.00 | 0.00 | 79 | 1012.0 |
| 20260505025208 | 14 | 328 | 11.3 | 16.1 | 0.00 | 0.00 | 0.00 | 79 | 1012.0 |
| 20260505024207 | 14 | 328 | 11.3 | 16.1 | 0.00 | 0.00 | 0.00 | 79 | 1012.0 |
| 20260505023207 | 14 | 328 | 11.3 | 16.1 | 0.00 | 0.00 | 0.00 | 79 | 1012.0 |
| 20260505022206 | 14 | 320 | 11.3 | 16.1 | 0.00 | 0.00 | 0.00 | 79 | 1012.0 |
| 20260505021204 | 15 | 310 | 6.4 | 0.0 | 0.00 | 0.00 | 0.00 | 78 | 1012.0 |
| 20260505020204 | 15 | 320 | 11.3 | 16.1 | 0.00 | 0.00 | 0.00 | 77 | 1012.0 |
| 20260505015200 | 15 | 320 | 11.3 | 16.1 | 0.00 | 0.00 | 0.00 | 78 | 1012.0 |
| 20260505014159 | 15 | 320 | 11.3 | 16.1 | 0.00 | 0.00 | 0.00 | 79 | 1012.0 |
| 20260505013158 | 15 | 335 | 11.3 | 14.5 | 0.00 | 0.00 | 0.00 | 79 | 1011.0 |
| 20260505012158 | 15 | 335 | 11.3 | 14.5 | 0.00 | 0.00 | 0.00 | 78 | 1011.0 |
| 20260505011157 | 15 | 335 | 11.3 | 14.5 | 0.00 | 0.00 | 0.00 | 78 | 1011.0 |
| 20260505010156 | 15 | 335 | 11.3 | 14.5 | 0.00 | 0.00 | 0.00 | 78 | 1011.0 |
| 20260505005155 | 15 | 335 | 11.3 | 14.5 | 0.00 | 0.00 | 0.00 | 77 | 1011.0 |